QPF
0.00 0.00 0.00 0.00 0.00 0.00 0.00 0.00 0.00 0.00 0.00 0.00 0.00 0.00 0.00 0.02 0.01 0.01 0.02 0.01 0.00 0.00 0.00 0.00 0.00 0.00 0.00 0.00 0.00 0.00 0.00 0.00
0.00 0.00 0.00 0.00 0.00 0.00 0.00 0.00 0.00 0.00 0.00 0.00 0.00 0.00 0.00 0.00 0.01 0.01 0.01 0.01 0.01 0.00 0.00 0.00 0.00 0.00 0.00 0.00 0.00 0.00 0.00 0.00
0.00 0.00 0.00 0.00 0.00 0.00 0.00 0.00 0.00 0.00 0.00 0.00 0.00 0.00 0.00 0.00 0.01 0.01 0.00 0.01 0.01 0.01 0.00 0.00 0.00 0.00 0.00 0.00 0.00 0.00 0.00 0.00
0.00 0.00 0.00 0.00 0.00 0.00 0.00 0.00 0.00 0.00 0.00 0.00 0.00 0.01 0.01 0.00 0.01 0.01 0.01 0.00 0.00 0.01 0.00 0.00 0.00 0.00 0.00 0.00 0.00 0.00 0.00 0.00
0.00 0.00 0.00 0.00 0.00 0.00 0.00 0.00 0.00 0.00 0.00 0.00 0.00 0.00 0.00 0.00 0.00 0.00 0.00 0.00 0.00 0.00 0.00 0.01 0.00 0.00 0.00 0.00 0.00 0.00 0.00 0.00
0.00 0.00 0.00 0.00 0.00 0.00 0.00 0.00 0.00 0.00 0.00 0.00 0.00 0.00 0.00 0.00 0.00 0.00 0.00 0.00 0.00 0.00 0.00 0.01 0.00 0.00 0.00 0.00 0.00 0.00 0.00 0.00
0.00 0.00 0.00 0.00 0.00 0.00 0.00 0.00 0.00 0.00 0.00 0.00 0.00 0.00 0.00 0.00 0.00 0.00 0.00 0.00 0.00 0.00 0.01 0.01 0.01 0.00 0.00 0.00 0.00 0.00 0.00 0.00
0.00 0.00 0.00 0.00 0.00 0.00 0.00 0.00 0.00 0.00 0.00 0.00 0.00 0.00 0.00 0.00 0.00 0.00 0.00 0.00 0.00 0.00 0.00 0.00 0.00 0.00 0.00 0.00 0.00 0.00 0.00 0.00
0.00 0.00 0.00 0.00 0.00 0.00 0.00 0.00 0.00 0.00 0.00 0.00 0.00 0.00 0.00 0.00 0.00 0.00 0.00 0.00 0.00 0.00 0.00 0.00 0.00 0.00 0.00 0.00 0.00 0.00 0.00 0.00
0.00 0.00 0.00 0.00 0.00 0.00 0.00 0.00 0.00 0.00 0.00 0.00 0.00 0.00 0.00 0.00 0.00 0.00 0.00 0.00 0.00 0.00 0.00 0.00 0.00 0.00 0.01 0.00 0.00 0.00 0.00 0.00
0.00 0.00 0.00 0.00 0.00 0.00 0.00 0.00 0.00 0.00 0.00 0.00 0.00 0.00 0.00 0.00 0.00 0.00 0.00 0.00 0.00 0.00 0.00 0.00 0.00 0.00 0.00 0.00 0.00 0.00 0.00 0.00
0.00 0.00 0.00 0.00 0.00 0.00 0.00 0.00 0.00 0.00 0.00 0.00 0.00 0.00 0.00 0.00 0.00 0.00 0.00 0.00 0.00 0.00 0.00 0.00 0.00 0.00 0.00 0.00 0.00 0.00 0.00 0.00
0.01 0.00 0.00 0.00 0.00 0.00 0.00 0.00 0.00 0.00 0.00 0.00 0.00 0.00 0.00 0.00 0.00 0.00 0.00 0.00 0.00 0.00 0.00 0.00 0.00 0.00 0.00 0.00 0.00 0.00 0.00 0.00
0.03 0.04 0.02 0.01 0.00 0.00 0.00 0.00 0.00 0.00 0.00 0.00 0.00 0.00 0.00 0.00 0.00 0.00 0.00 0.00 0.00 0.00 0.00 0.00 0.00 0.00 0.00 0.00 0.00 0.00 0.00 0.00
0.03 0.08 0.10 0.09 0.07 0.03 0.00 0.00 0.00 0.00 0.00 0.00 0.00 0.00 0.00 0.00 0.00 0.00 0.00 0.00 0.00 0.00 0.00 0.00 0.00 0.00 0.00 0.00 0.00 0.00 0.00 0.00
0.00 0.02 0.07 0.11 0.09 0.08 0.06 0.04 0.02 0.01 0.00 0.00 0.00 0.00 0.00 0.00 0.00 0.00 0.00 0.00 0.00 0.00 0.00 0.00 0.00 0.00 0.00 0.00 0.00 0.00 0.00 0.00
0.00 0.00 0.00 0.01 0.07 0.07 0.04 0.06 0.06 0.04 0.02 0.00 0.00 0.00 0.00 0.00 0.00 0.00 0.00 0.00 0.00 0.00 0.00 0.00 0.00 0.00 0.00 0.00 0.00 0.00 0.00 0.00
0.00 0.00 0.00 0.00 0.02 0.07 0.05 0.06 0.06 0.03 0.02 0.03 0.01 0.00 0.00 0.00 0.00 0.00 0.00 0.00 0.00 0.00 0.00 0.00 0.00 0.00 0.00 0.00 0.00 0.00 0.00 0.00
0.00 0.00 0.00 0.00 0.00 0.00 0.05 0.07 0.06 0.08 0.05 0.03 0.02 0.01 0.00 0.00 0.00 0.00 0.00 0.00 0.00 0.00 0.00 0.00 0.00 0.00 0.00 0.00 0.00 0.00 0.00 0.00
MSLP
1002.82 1003.63 1004.58 1005.41 1006.02 1006.40 1006.75 1007.34 1007.68 1008.23 1008.57 1008.83 1008.86 1008.87 1009.03 1008.62 1008.72 1009.28 1009.25 1010.28 1011.63 1012.06 1013.05 1013.96 1015.01 1015.73 1016.82 1017.71 1018.23 1018.55 1019.14 1019.70
1003.14 1003.77 1004.66 1005.50 1006.12 1006.41 1006.56 1007.22 1007.59 1008.09 1008.67 1008.93 1009.09 1008.88 1009.14 1008.97 1008.70 1009.13 1009.66 1010.16 1011.39 1011.97 1013.01 1014.01 1014.91 1015.40 1016.51 1017.62 1018.10 1018.54 1019.42 1019.60
1003.67 1004.20 1004.89 1005.32 1005.62 1006.32 1006.42 1007.09 1007.43 1007.88 1008.40 1008.71 1008.90 1009.01 1009.06 1009.17 1008.91 1009.17 1009.66 1010.17 1011.30 1011.92 1013.02 1013.83 1014.73 1015.16 1016.32 1017.26 1017.62 1018.52 1019.17 1019.49
1003.29 1004.01 1004.57 1005.04 1005.30 1006.03 1006.14 1006.83 1007.23 1007.73 1008.16 1008.57 1008.88 1009.03 1009.20 1009.42 1009.24 1009.27 1010.09 1010.76 1011.33 1011.85 1012.84 1013.56 1014.41 1014.97 1015.86 1016.86 1017.30 1017.78 1018.68 1019.63
1002.54 1003.56 1004.15 1004.54 1005.04 1005.65 1005.91 1006.54 1007.12 1007.64 1007.92 1008.36 1008.53 1008.50 1008.80 1009.18 1009.28 1009.52 1010.56 1011.18 1011.74 1012.14 1012.91 1013.54 1014.23 1015.02 1015.67 1016.45 1016.86 1017.36 1018.08 1019.11
1001.32 1002.24 1003.20 1004.18 1004.86 1005.47 1005.69 1006.23 1006.90 1007.46 1007.72 1007.99 1008.24 1008.37 1008.76 1009.11 1009.63 1010.35 1010.91 1011.61 1011.81 1012.38 1012.86 1013.69 1014.27 1014.93 1015.67 1016.15 1016.63 1017.08 1017.74 1018.64
1001.30 1002.33 1003.24 1004.09 1004.74 1005.22 1005.38 1005.88 1006.48 1007.12 1007.54 1007.92 1008.15 1008.49 1008.70 1009.30 1009.78 1010.43 1011.22 1011.79 1012.14 1012.59 1013.14 1013.60 1014.23 1015.12 1015.69 1015.86 1016.46 1016.95 1017.56 1018.10
1000.40 1001.63 1002.80 1003.72 1004.25 1004.74 1005.04 1005.48 1005.91 1006.77 1007.26 1007.66 1008.08 1008.58 1008.96 1009.27 1009.69 1010.36 1010.97 1011.78 1012.29 1012.70 1013.29 1013.78 1014.40 1015.01 1015.63 1016.04 1016.66 1017.39 1017.58 1017.98
999.49 1000.67 1002.08 1003.08 1003.60 1004.18 1004.61 1005.21 1005.65 1006.45 1006.96 1007.48 1007.87 1008.30 1008.97 1009.46 1009.82 1010.40 1011.07 1011.42 1012.09 1012.83 1013.39 1013.83 1014.29 1015.05 1015.77 1016.37 1016.92 1017.35 1017.73 1017.81
999.50 1000.46 1001.75 1002.46 1002.91 1003.43 1003.97 1004.68 1005.16 1006.14 1006.63 1007.19 1007.67 1008.21 1008.81 1009.26 1009.83 1010.52 1011.00 1011.60 1012.18 1012.71 1013.30 1013.96 1014.43 1015.05 1015.73 1016.38 1016.91 1017.11 1017.48 1017.80
999.39 1000.04 1000.84 1001.65 1002.31 1003.02 1003.63 1004.15 1004.59 1005.51 1006.31 1006.76 1007.30 1007.99 1008.66 1009.16 1009.70 1010.31 1010.91 1011.63 1012.07 1012.71 1013.52 1014.05 1014.48 1015.08 1015.62 1016.11 1016.55 1016.67 1017.09 1017.41
1000.38 999.48 1000.26 1001.04 1002.02 1002.64 1003.22 1003.70 1004.22 1005.03 1005.77 1006.37 1006.88 1007.52 1008.29 1008.93 1009.40 1009.96 1010.50 1011.25 1011.76 1012.21 1012.76 1013.33 1014.02 1014.38 1014.83 1015.64 1015.91 1016.32 1016.56 1016.94
998.98 1000.07 1000.61 1000.67 1001.53 1002.31 1002.77 1003.33 1003.83 1004.41 1005.16 1005.89 1006.44 1006.97 1007.60 1008.29 1008.98 1009.55 1010.09 1010.66 1011.32 1011.78 1012.31 1012.86 1013.48 1013.92 1014.65 1015.14 1015.44 1015.78 1016.23 1016.49
1000.15 1000.31 1001.52 1001.75 1000.99 1001.79 1002.32 1002.69 1003.06 1003.86 1004.66 1005.30 1005.94 1006.52 1007.09 1007.69 1008.39 1009.11 1009.67 1010.18 1010.72 1011.32 1011.86 1012.39 1012.99 1013.54 1014.21 1014.70 1015.05 1015.38 1015.68 1016.01
1001.78 1001.61 1001.81 1002.24 1002.84 1002.58 1001.43 1001.90 1002.26 1002.97 1003.97 1004.68 1005.17 1005.79 1006.46 1007.17 1007.95 1008.71 1009.37 1009.87 1010.49 1011.05 1011.49 1011.92 1012.43 1012.91 1013.37 1013.86 1014.31 1014.70 1015.14 1015.61
1002.50 1002.18 1001.93 1002.02 1001.98 1002.29 1003.21 1002.45 1001.82 1002.73 1003.35 1003.81 1004.28 1005.07 1005.85 1006.62 1007.43 1008.12 1008.78 1009.41 1010.02 1010.70 1011.18 1011.63 1012.09 1012.54 1012.94 1013.41 1013.80 1014.27 1014.94 1016.35
1003.76 1003.31 1003.07 1002.82 1002.46 1002.29 1002.30 1002.43 1003.22 1003.03 1002.88 1003.19 1003.50 1004.13 1004.97 1005.82 1006.76 1007.54 1008.19 1008.81 1009.37 1009.94 1010.64 1011.17 1011.59 1011.95 1012.47 1012.77 1013.31 1014.23 1015.23 1016.25
1005.36 1004.80 1004.15 1004.06 1003.66 1003.21 1002.48 1001.68 1002.26 1002.94 1003.83 1003.36 1003.15 1003.38 1003.96 1004.86 1005.95 1006.84 1007.60 1008.23 1008.95 1009.50 1010.03 1010.81 1011.95 1012.49 1012.45 1012.69 1013.16 1014.51 1015.65 1016.70
1004.87 1005.48 1004.72 1004.09 1003.65 1002.78 1002.22 1001.43 1001.64 1002.08 1002.47 1002.92 1003.52 1003.06 1003.36 1004.44 1005.44 1006.31 1007.29 1008.15 1008.96 1009.93 1010.96 1011.62 1012.38 1013.10 1013.22 1013.38 1013.90 1015.14 1016.32 1017.25
Thickness
5713 5704 5695 5686 5680 5673 5667 5660 5654 5645 5642 5638 5635 5634 5631 5633 5637 5634 5636 5634 5628 5631 5628 5627 5624 5623 5618 5613 5614 5617 5616 5615
5705 5699 5689 5681 5675 5670 5666 5659 5652 5644 5638 5635 5631 5630 5628 5629 5632 5630 5631 5632 5627 5629 5627 5626 5622 5624 5619 5609 5610 5611 5608 5611
5692 5688 5682 5679 5676 5668 5665 5657 5651 5644 5637 5633 5631 5628 5626 5625 5628 5629 5629 5631 5624 5626 5624 5625 5621 5622 5615 5609 5609 5605 5605 5605
5688 5683 5680 5676 5675 5669 5665 5657 5651 5643 5637 5631 5629 5627 5624 5621 5624 5627 5623 5623 5622 5623 5620 5620 5617 5619 5615 5608 5607 5608 5605 5599
5688 5682 5677 5675 5673 5668 5664 5657 5650 5642 5637 5630 5629 5630 5625 5622 5623 5623 5618 5617 5617 5618 5615 5614 5615 5615 5611 5607 5608 5607 5604 5597
5692 5686 5679 5673 5671 5666 5663 5657 5650 5642 5637 5632 5630 5629 5625 5621 5618 5614 5613 5610 5612 5611 5611 5609 5610 5609 5605 5604 5604 5602 5599 5594
5687 5679 5673 5669 5667 5664 5662 5658 5651 5643 5637 5631 5628 5626 5623 5618 5617 5610 5607 5606 5606 5606 5605 5607 5605 5600 5597 5601 5599 5598 5595 5591
5686 5678 5672 5668 5667 5663 5662 5658 5653 5645 5639 5633 5628 5622 5621 5618 5616 5610 5607 5603 5602 5603 5601 5600 5599 5595 5594 5593 5591 5587 5587 5585
5687 5681 5673 5668 5667 5664 5661 5656 5653 5645 5639 5633 5629 5624 5618 5614 5612 5608 5605 5603 5598 5598 5596 5595 5593 5588 5585 5582 5581 5579 5578 5579
5681 5679 5671 5668 5667 5665 5662 5657 5653 5645 5639 5634 5629 5624 5619 5615 5611 5606 5602 5598 5595 5593 5592 5589 5586 5584 5581 5578 5576 5577 5575 5574
5677 5678 5673 5670 5667 5664 5660 5657 5654 5646 5640 5635 5630 5625 5620 5615 5611 5606 5602 5595 5593 5593 5587 5585 5584 5580 5578 5576 5575 5577 5575 5574
5659 5676 5672 5669 5665 5661 5658 5656 5653 5646 5641 5635 5629 5624 5619 5616 5613 5608 5604 5599 5597 5594 5592 5588 5584 5583 5582 5576 5578 5576 5576 5575
5665 5662 5661 5666 5663 5658 5656 5654 5651 5647 5641 5636 5630 5624 5620 5617 5613 5609 5605 5603 5599 5597 5594 5590 5587 5585 5580 5579 5578 5578 5575 5574
5644 5650 5643 5647 5660 5656 5654 5653 5653 5647 5640 5636 5631 5625 5620 5617 5612 5608 5605 5603 5600 5596 5594 5592 5589 5586 5583 5580 5578 5576 5575 5573
5624 5630 5633 5634 5632 5639 5655 5653 5653 5649 5641 5636 5632 5628 5623 5617 5612 5608 5604 5602 5598 5595 5593 5591 5588 5586 5584 5581 5577 5575 5571 5567
5613 5621 5625 5628 5634 5633 5628 5642 5651 5644 5641 5639 5635 5630 5624 5619 5612 5608 5603 5600 5597 5593 5591 5589 5586 5585 5583 5578 5574 5571 5565 5552
5598 5608 5613 5614 5623 5628 5633 5634 5629 5634 5637 5638 5636 5633 5627 5621 5615 5610 5605 5601 5598 5595 5591 5588 5586 5583 5575 5573 5572 5564 5556 5547
5579 5587 5599 5603 5610 5617 5627 5637 5632 5628 5621 5629 5633 5633 5630 5624 5616 5610 5606 5601 5596 5594 5589 5583 5574 5571 5571 5568 5564 5554 5545 5537
5577 5576 5586 5596 5604 5615 5623 5631 5630 5628 5627 5627 5622 5630 5629 5622 5615 5610 5604 5596 5588 5580 5573 5568 5563 5559 5559 5556 5552 5541 5532 5524